Location: Kershaw
(34.5481°N, 80.5823°W)
Time: 15:26:41
(UTC+00:00)

Vanguard 1 Rocket - Pass Details

Date: 04 October 2022
Orbit: 650 x 4225 km, 34.3° (Epoch: 08 December)

Event Time Altitude Azimuth Distance (km) Brightness Sun altitude
Rises 19:20:31 0° 179° (S) 8,055 12.7 40.4°
Reaches altitude 10° 19:31:27 10° 157° (SSE) 7,383 12.3 38.8°
Maximum altitude 19:41:55 14° 133° (SE) 7,020 12.0 37.2°
Drops below altitude 10° 19:51:46 10° 109° (ESE) 7,045 11.7 35.6°
Sets 20:01:06 0° 88° (E) 7,480 11.6 34.0°
